Location: Arborea
(39.7744°N, 8.5819°E)
Time: 01:04:44
(UTC+00:00)

Milstar 3 Cent rocket - Pass Details

Date: 24 October 2021
Orbit: 706 x 5147 km, 28.3° (Epoch: 05 December)

Event Time Altitude Azimuth Distance (km) Brightness Sun altitude
Rises 18:10:26 0° 223° (SW) 3,434 6.0 -19.3°
Reaches altitude 10° 18:12:50 10° 210° (SSW) 2,742 5.2 -19.7°
Maximum altitude 18:18:22 28° 151° (SSE) 2,329 4.2 -20.8°
Enters shadow 18:21:20 24° 124° (ESE) 2,893 4.4 -21.3°
